星链-35260(STARLINK-35260)

导读 | 豆包AI

STARLINK-35260是美国SpaceX公司星链计划中的一颗低轨卫星,于2025年9月25日发射升空。该卫星属于Starlink星座组网卫星,旨在为全球提供高速低延迟互联网接入服务,尤其覆盖偏远地区与网络基础设施薄弱区域,依托星链星座的规模优势,进一步完善了全球卫星互联网的覆盖密度与服务能力。

基本信息
目录编号:
65751
目录名称:
STARLINK-35260
国际标识:
2025-216T
轨道中心:
EARTH
卫星名称:
星链-35260
卫星全名:
星链-35260(STARLINK-35260)
卫星状态:
在轨 (已飞行216 天)
发射日期:
2025-09-25 UTC
国别 :
美国 (US)
星等 :
--
轨道信息
数据来源 国际轨道数据 AOE轨道数据
星历时间 2026-04-29T07:04:51+0800
8小时前
查看轨道信息
2026-04-26T23:00:00+0800
2天前
查看轨道信息
半长轴 6853.317km 6853.4km
偏心率 0.0001304 0.0001317
轨道倾角 53.158° 53.157°
近地点辐角 87.296° 49.611°
升交点赤经 99.153° 110.007°
平近点角 272.819° 31.109°
近地点 474.286km 474.36km
远地点 476.074km 476.166km
周期 94.105分钟 94.106分钟
每日圈数 15.302118 15.301841
详细信息
固有亮度:
5
最大亮度:
2.5
卫星平台:
Starlink V1.0
覆盖范围:
全球
运营商:
太空探索技术公司
运营商所在国:
美国
制造商(研发单位):
太空探索技术公司
制造商所在国:
美国
使用方式:
暂无
卫星简介
Starlink 计划是 SpaceX 推出的全球卫星互联网项目,通过发射低轨道卫星,为全球尤其是偏远地区提供高速、低延迟的互联网服务。自 2019 年起,Starlink 已部署数千颗卫星,旨在缩小全球数字鸿沟,推动互联网普及。该项目还为军事、航空等行业提供通信支持,带来广泛经济效益。
2D轨道图
3D轨道图
轨道高度分析图
轨道倾角分析图
轨道综合分析图
查看轨道综合分析图